Content
SEND FEEDBACK

Daily
Averages
Monthly
Summary
Canada

VANCOUVER, BRITISH COLUMBIA


Home > North America > Canada > British Columbia
Elevation: 2 meters     Latitude: 49 11N     Longitude: 123 10W

WEATHER
 
SELECT A DAY
Number of Records: 254,921;   Date Range: 5/15/97 - 12/19/14
 
SHARE

PRINT THIS DATA

[ ← Previous Day ]
WEATHER ALMANAC - 4 FEBRUARY, 2013
[ Next Day → ]
[ °F ]   °C
Weather ElementAverageHighLow
Temperature7.3 °C8 °C (10:35 am)6 °C (9:55 pm)
Dewpoint5.1 °C6 °C (3:15 am)4 °C (3:35 pm)
Humidity86.1 %93 % (3:15 am)76 % (3:35 pm)
Barometer1016.9 hPa1021 hPa (12:55 am)1009.8 hPa (11:15 pm)
Wind Speed9.3 km/h24.1 km/h (5:15 am)
Wind Gust31.5 km/h (10:35 am)
Weather ElementAverage
Visibility15.6 km
Wind DirectionESE (122.1 °)

Weather ElementTotal
Precipitation---
Heating Degree Days11.3 (Base 18.3)
Averaged from 58 records on 4 February, 2013
WEATHER CONDITIONS BREAKOUT
WIND DIRECTION BREAKOUT
WEATHER BY HOUR - 4 FEBRUARY, 2013
[ °F ]   °C
Local TimeTemperatureDewpointHumidityBarometerVisibilityWind DirectionWind SpeedGust SpeedPrecipitationEventsConditions
12:35 AM7 °C5 °C87 %1020.7 hPa16.1 kmSouth (190°)16.7 km/hMostly Cloudy
12:55 AM7 °C5 °C87 %1021 hPa16.1 kmSSW (210°)16.7 km/hPartly Cloudy
1:15 AM7 °C5 °C87 %1021 hPa16.1 kmSSW (200°)14.8 km/hClear
3:15 AM7 °C6 °C93 %1021 hPa16.1 kmSouth (190°)14.8 km/hOvercast
3:35 AM7 °C6 °C93 %1020 hPa16.1 kmSouth (170°)13 km/hScattered Clouds
4:15 AM7 °C6 °C93 %1020.3 hPa16.1 kmSouth (190°)14.8 km/hMostly Cloudy
4:35 AM7 °C6 °C93 %1020.3 hPa16.1 kmSouth (190°)13 km/hOvercast
5:15 AM7 °C6 °C93 %1019.6 hPa16.1 kmSouth (190°)24.1 km/hMostly Cloudy
6:15 AM7 °C6 °C93 %1019.3 hPa16.1 kmSouth (190°)14.8 km/hMostly Cloudy
6:35 AM7 °C5 °C87 %1019.6 hPa16.1 kmSouth (180°)13 km/hMostly Cloudy
6:55 AM7 °C5 °C87 %1019.3 hPa16.1 kmSouth (190°)18.5 km/h27.8 km/hMostly Cloudy
7:15 AM7 °C5 °C87 %1019.3 hPa16.1 kmSouth (180°)16.7 km/hOvercast
7:35 AM7 °C5 °C87 %1019.3 hPa16.1 kmSouth (170°)13 km/hOvercast
7:55 AM7 °C5 °C87 %1019.3 hPa16.1 kmSouth (180°)14.8 km/hMostly Cloudy
8:15 AM7 °C5 °C87 %1019.3 hPa16.1 kmSSE (160°)7.4 km/hOvercast
8:35 AM7 °C5 °C87 %1019.6 hPa16.1 kmSSE (160°)13 km/hOvercast
9:15 AM7 °C5 °C87 %1019.6 hPa16.1 kmSSE (160°)9.3 km/hOvercast
9:35 AM7 °C5 °C87 %1019.6 hPa16.1 kmSouth (170°)9.3 km/hOvercast
9:55 AM7 °C5 °C87 %1019.6 hPa16.1 kmSouth (180°)11.1 km/hOvercast
10:15 AM7 °C5 °C87 %1019.6 hPa16.1 kmSouth (170°)13 km/hOvercast
10:35 AM8 °C5 °C81 %1020 hPa16.1 kmSouth (170°)14.8 km/h31.5 km/hOvercast
10:55 AM8 °C5 °C81 %1019.6 hPa16.1 kmSouth (180°)13 km/h25.9 km/hOvercast
11:15 AM8 °C5 °C81 %1020 hPa16.1 kmSSE (160°)9.3 km/hOvercast
11:35 AM8 °C5 °C81 %1019.6 hPa16.1 kmSouth (170°)11.1 km/hOvercast
11:55 AM8 °C5 °C81 %1019.6 hPa16.1 kmSouth (170°)13 km/hOvercast
12:15 PM8 °C5 °C81 %1019.3 hPa16.1 kmSSE (160°)9.3 km/hOvercast
12:55 PM8 °C5 °C81 %1018.6 hPa16.1 kmSouth (170°)13 km/hOvercast
1:15 PM8 °C5 °C81 %1018.3 hPa16.1 kmSouth (170°)11.1 km/hOvercast
1:35 PM8 °C5 °C81 %1017.9 hPa16.1 kmSouth (180°)13 km/hOvercast
1:55 PM8 °C5 °C81 %1017.6 hPa16.1 kmSouth (180°)14.8 km/h25.9 km/hMostly Cloudy
2:15 PM8 °C5 °C81 %1017.6 hPa16.1 kmSouth (180°)9.3 km/hScattered Clouds
2:35 PM8 °C5 °C81 %1017.3 hPa16.1 kmSouth (180°)14.8 km/hScattered Clouds
2:55 PM8 °C5 °C81 %1016.9 hPa16.1 kmSouth (170°)7.4 km/hPartly Cloudy
3:15 PM8 °C5 °C81 %1016.6 hPa16.1 kmSSE (160°)7.4 km/hPartly Cloudy
3:35 PM8 °C4 °C76 %1016.3 hPa16.1 kmSouth (180°)13 km/hPartly Cloudy
3:55 PM8 °C5 °C81 %1016.3 hPa16.1 kmSouth (190°)9.3 km/hScattered Clouds
4:15 PM8 °C5 °C81 %1016.3 hPa16.1 kmSSW (210°)13 km/hScattered Clouds
4:55 PM8 °C5 °C81 %1015.6 hPa16.1 kmCalmPartly Cloudy
5:15 PM7 °C5 °C87 %1015.6 hPa16.1 kmCalmClear
5:35 PM7 °C5 °C87 %1015.6 hPa16.1 kmCalmMostly Cloudy
5:55 PM7 °C5 °C87 %1015.2 hPa16.1 kmCalmOvercast
6:15 PM7 °C5 °C87 %1014.9 hPa16.1 kmCalmMostly Cloudy
6:35 PM7 °C5 °C87 %1014.6 hPa16.1 kmCalmClear
6:55 PM8 °C5 °C81 %1014.2 hPa16.1 kmESE (120°)5.6 km/hClear
7:15 PM8 °C5 °C81 %1014.2 hPa12.9 kmENE (70°)9.3 km/hRainLight Rain
7:35 PM7 °C5 °C87 %1013.5 hPa11.3 kmCalmRainLight Rain
7:55 PM7 °C5 °C87 %1013.2 hPa14.5 kmCalmRainLight Rain
8:15 PM7 °C6 °C93 %1013.2 hPa14.5 kmNNE (20°)5.6 km/hRainLight Rain
8:35 PM7 °C5 °C87 %1012.5 hPa14.5 kmNorth (10°)7.4 km/hRainLight Rain
8:55 PM7 °C5 °C87 %1012.2 hPa16.1 kmENE (60°)5.6 km/hClear
9:15 PM7 °C5 °C87 %1011.9 hPa14.5 kmCalmClear
9:55 PM6 °C5 °C93 %1011.5 hPa11.3 kmEast (90°)5.6 km/hClear
10:15 PM6 °C5 °C93 %1011.2 hPa11.3 kmCalmClear
10:35 PM7 °C5 °C87 %1011.2 hPa16.1 kmCalmPartly Cloudy
10:55 PM6 °C5 °C93 %1010.2 hPa14.5 kmENE (60°)11.1 km/hClear
11:15 PM6 °C5 °C93 %1009.8 hPa12.9 kmNE (50°)11.1 km/hClear
11:35 PM7 °C5 °C87 %1009.8 hPa16.1 kmCalmClear
11:55 PM6 °C5 °C93 %1009.8 hPa16.1 kmCalmClear
Hourly data recorded from CZBB, located 0 kilometers away from Vancouver, British Columbia







STORIES FROM OUR PARTNERS